sat.trackr.live / text

‹ back to catalog

YAOGAN-30 11A

NORAD 49026 · 2021-065A

PAYLOAD ACTIVE UNKNOWN

§ Identity

Operator
Country
PRC
Launch date
2021-07-19
Launch site
XICLF
Launch vehicle
Mass (kg)
RCS (m²)

External: N2YO · Heavens-Above · Gunter

§ Orbital elements

Epoch: 2026-09-20T20:23:04.841376Z

Period
95.81 min
Inclination
34.9935°
Eccentricity
0.0005139
Mean motion
15.03031650 rev/d
Perigee alt
554.0 km
Apogee alt
561.1 km
Semi-major
6,935.7 km
B*
1.1887e-4
RAAN
49.8512°
Arg perigee
271.4497°
Mean anomaly
88.5623°
Rev number
28,304

§ Raw data

YAOGAN-30 11A1 49026U 21065A   26263.84936159  .00001604  00000+0  11887-3 0  99972 49026  34.9935  49.8512 0005139 271.4497  88.5623 15.03031650283040

JSON: /api/v1/satellites/49026 · /tle

For live sub-satellite position, see the globe view (requires WebGL).

§ Visibility from observer

Set your observer location to see the next 7 days of passes ≥ 10°. The values pass through the URL so the page stays shareable.

No JS? Fill the form by hand. The geolocation button needs JavaScript.